User: anonymous   Login
Location: Unspecified
(0.0000°N, 0.0000°E)
Time: 15:34:26
(UTC+00:00)
Language:

A-11 Canister half - Orbit

View from above orbital plane
View from above orbital plane
View from above satellite
View from above satellite

Ground track
Ground track

The orbit data is extracted from the following two-line orbital elements,

1 00051U 60009C   14354.23253799 -.00000084  00000-0  00000+0 0  6975
2 00051 047.2141 074.0848 0103321 317.4721 069.3867 12.18244684419501
Epoch (UTC): 20 December 2014 05:34:51
Eccentricity: 0.0103321
inclination: 47.2141°
perigee height: 1518 km
apogee height: 1682 km
right ascension of ascending node: 74.0848°
argument of perigee: 317.4721°
revolutions per day: 12.18244684
mean anomaly at epoch: 69.3867°
orbit number at epoch: 41950

The dashed part of the orbit path shows where the satellite is in the earth's shadow,  

DLR